EW0578 Weather Reports


time (UTC)temp
C
wind
direction
speed
KPH
gust
KPH
rain 1hr
cm
rain 24hr
cm
rain mn
cm
humidity
%
barometer
mb
20260505224511 22 279 19.3 37.0 0.00 0.13 0.13 26 1003.5
20260505224010 22 248 25.7 35.4 0.00 0.13 0.13 25 1003.6
20260505223508 22 250 19.3 32.2 0.00 0.13 0.13 26 1003.6
20260505223008 22 267 20.9 38.6 0.00 0.13 0.13 25 1003.7
20260505222508 22 234 27.4 43.5 0.00 0.13 0.13 25 1003.7
20260505222010 22 222 22.5 43.5 0.00 0.13 0.13 26 1003.8
20260505221506 22 242 20.9 43.5 0.00 0.13 0.13 25 1003.9
20260505221006 23 217 24.1 43.5 0.00 0.13 0.13 24 1003.9
20260505220506 22 197 17.7 33.8 0.00 0.13 0.13 27 1003.8
20260505220005 22 265 17.7 33.8 0.00 0.13 0.13 26 1004.0
20260505215505 22 255 20.9 40.2 0.00 0.13 0.13 25 1004.0
20260505215005 22 244 20.9 45.1 0.00 0.13 0.13 26 1004.2
20260505214504 22 213 22.5 46.7 0.00 0.13 0.13 25 1004.3
20260505214003 22 245 25.7 46.7 0.00 0.13 0.13 25 1004.3
20260505213502 22 227 19.3 33.8 0.00 0.13 0.13 27 1004.3
20260505213002 22 232 16.1 43.5 0.00 0.13 0.13 27 1004.3
20260505212501 22 204 24.1 43.5 0.00 0.13 0.13 27 1004.5
20260505212100 22 225 20.9 46.7 0.00 0.13 0.13 28 1004.6
20260505211641 22 223 22.5 46.7 0.00 0.13 0.13 28 1004.7
20260505211104 21 243 24.1 45.1 0.00 0.13 0.13 26 1004.6
20260505210559 22 242 27.4 40.2 0.00 0.13 0.13 28 1004.7
20260505210059 22 213 20.9 40.2 0.00 0.13 0.13 26 1004.7
20260505205559 22 232 19.3 41.8 0.00 0.13 0.13 29 1004.7
20260505205059 21 218 20.9 41.8 0.00 0.13 0.13 30 1004.8
20260505204608 21 262 20.9 37.0 0.00 0.13 0.13 29 1004.8
20260505204058 22 209 20.9 35.4 0.00 0.13 0.13 28 1004.8
20260505203558 22 227 27.4 35.4 0.00 0.13 0.13 28 1004.9
20260505203059 21 255 14.5 33.8 0.00 0.13 0.13 31 1004.7
20260505202557 22 250 20.9 40.2 0.00 0.13 0.13 29 1004.8
20260505202056 22 240 24.1 40.2 0.00 0.13 0.13 29 1004.7
20260505201556 22 265 12.9 37.0 0.00 0.13 0.13 30 1004.7
20260505201055 22 241 22.5 35.4 0.00 0.13 0.13 30 1004.6
20260505200554 21 211 17.7 29.0 0.00 0.13 0.13 31 1004.7
20260505200054 21 257 19.3 35.4 0.00 0.13 0.13 32 1004.8
20260505195555 21 247 19.3 38.6 0.00 0.13 0.13 32 1004.8
20260505195055 21 256 22.5 38.6 0.00 0.13 0.13 31 1004.8
20260505194554 21 199 19.3 32.2 0.00 0.13 0.13 29 1004.9
20260505194053 22 276 20.9 37.0 0.00 0.13 0.13 31 1004.8
20260505193552 21 230 24.1 38.6 0.00 0.13 0.13 32 1004.9
20260505193052 21 210 20.9 40.2 0.00 0.13 0.13 32 1005.0
20260505192556 21 225 24.1 40.2 0.00 0.13 0.13 33 1005.0
20260505192051 21 223 17.7 30.6 0.00 0.13 0.13 33 1005.1
20260505191550 21 173 19.3 33.8 0.00 0.13 0.13 35 1005.1
20260505191050 21 219 24.1 33.8 0.00 0.13 0.13 35 1005.4
20260505190550 21 240 17.7 41.8 0.00 0.13 0.13 37 1005.4
20260505190047 21 227 24.1 41.8 0.00 0.13 0.13 38 1005.4
20260505185547 21 224 19.3 37.0 0.00 0.13 0.13 37 1005.6
20260505185046 21 236 20.9 32.2 0.00 0.13 0.13 39 1005.5
20260505184546 20 255 17.7 32.2 0.00 0.13 0.13 42 1005.5
20260505184048 20 222 11.3 30.6 0.00 0.13 0.13 42 1005.6
20260505183546 21 219 20.9 38.6 0.00 0.13 0.13 41 1005.8
20260505183044 20 224 19.3 38.6 0.03 0.13 0.13 43 1005.6
20260505182541 20 230 17.7 30.6 0.03 0.13 0.13 44 1005.8
20260505182040 20 217 17.7 32.2 0.03 0.13 0.13 44 1005.8
20260505181557 19 226 17.7 32.2 0.03 0.13 0.13 46 1005.9
20260505181038 18 190 14.5 30.6 0.03 0.13 0.13 48 1005.8
20260505180537 18 249 14.5 24.1 0.03 0.13 0.13 49 1005.8
20260505180035 18 262 11.3 30.6 0.03 0.13 0.13 50 1005.8
20260505175535 18 219 17.7 29.0 0.03 0.13 0.13 49 1005.9
20260505175034 18 229 17.7 29.0 0.03 0.13 0.13 51 1005.9
20260505174538 18 192 16.1 27.4 0.03 0.13 0.13 52 1005.9
20260505174032 17 202 12.9 30.6 0.03 0.13 0.13 53 1006.0
20260505173532 17 217 17.7 29.0 0.03 0.13 0.13 53 1006.0
20260505173031 17 248 12.9 29.0 0.00 0.10 0.10 54 1005.9
20260505172531 17 205 9.7 22.5 0.00 0.10 0.10 56 1006.0
20260505172031 17 254 11.3 19.3 0.00 0.10 0.10 55 1006.0
20260505171537 17 213 11.3 22.5 0.00 0.10 0.10 57 1005.9
20260505171027 17 271 11.3 22.5 0.00 0.10 0.10 58 1005.9
20260505170528 16 221 12.9 19.3 0.00 0.10 0.10 60 1006.0
20260505170024 16 238 9.7 24.1 0.00 0.10 0.10 61 1005.9
20260505165522 16 236 14.5 24.1 0.00 0.10 0.10 62 1006.0
20260505165023 15 213 9.7 20.9 0.00 0.10 0.10 63 1006.0
20260505164522 15 175 6.4 14.5 0.00 0.10 0.10 64 1006.0
20260505164021 15 260 3.2 16.1 0.00 0.10 0.10 64 1005.9
20260505163524 15 250 8.0 16.1 0.00 0.10 0.10 64 1005.8
20260505163021 15 221 6.4 16.1 0.00 0.10 0.10 65 1005.8
20260505162520 15 225 6.4 16.1 0.00 0.10 0.10 64 1005.9
20260505162019 15 169 8.0 17.7 0.00 0.10 0.10 64 1005.9
20260505161517 15 208 4.8 12.9 0.00 0.10 0.10 65 1005.9
20260505161017 15 190 4.8 11.3 0.00 0.10 0.10 67 1005.8
20260505160521 15 140 4.8 11.3 0.00 0.10 0.10 67 1005.7
20260505153016 13 192 6.4 9.7 0.00 0.10 0.10 72 1005.7
20260505152507 13 167 6.4 12.9 0.00 0.10 0.10 73 1005.7
20260505152011 12 189 6.4 12.9 0.00 0.10 0.10 73 1005.7
20260505151506 12 177 6.4 14.5 0.00 0.10 0.10 73 1005.7
20260505151006 12 200 6.4 16.1 0.00 0.10 0.10 73 1005.6
20260505150509 12 146 6.4 16.1 0.00 0.10 0.10 73 1005.6
20260505140504 12 180 1.6 6.4 0.00 0.10 0.10 87 1005.0
20260505124559 11 105 3.2 11.3 0.03 0.10 0.10 87 1004.1
20260505124059 11 115 4.8 11.3 0.05 0.10 0.10 87 1004.1
20260505123659 11 103 4.8 11.3 0.05 0.10 0.10 87 1004.1
20260505123101 11 112 1.6 9.7 0.08 0.10 0.10 87 1004.1
20260505122557 11 121 3.2 9.7 0.08 0.10 0.10 87 1004.2
20260505122059 11 109 3.2 12.9 0.05 0.08 0.08 87 1004.1
20260505121557 10 88 6.4 11.3 0.05 0.08 0.08 87 1003.8
20260505121056 10 115 4.8 11.3 0.05 0.08 0.08 88 1003.9
20260505120557 10 113 1.6 9.7 0.05 0.08 0.08 89 1003.7
20260505120112 11 104 3.2 6.4 0.05 0.08 0.08 89 1003.7
20260505115554 11 88 0.0 8.0 0.05 0.08 0.08 90 1004.0
20260505115054 11 111 1.6 6.4 0.05 0.08 0.08 90 1004.0
20260505114555 11 123 0.0 4.8 0.05 0.08 0.08 90 1004.2
20260505114054 11 74 0.0 0.0 0.03 0.05 0.05 90 1004.5
20260505113555 11 74 0.0 0.0 0.03 0.05 0.05 90 1004.7
20260505113053 11 74 0.0 0.0 0.03 0.03 0.03 90 1004.6
20260505112551 10 74 0.0 0.0 0.03 0.03 0.03 89 1004.6
20260505112051 10 74 0.0 1.6 0.03 0.03 0.03 90 1004.6
20260505111551 10 74 0.0 3.2 0.03 0.03 0.03 90 1004.5
20260505111051 10 74 0.0 6.4 0.03 0.03 0.03 90 1004.4
20260505110552 11 74 3.2 6.4 0.03 0.03 0.03 89 1004.7
20260505110108 11 71 0.0 0.0 0.03 0.03 0.03 90 1004.7
20260505102042 11 11 3.2 8.0 0.00 0.00 0.00 88 1005.9
20260505101542 11 5 4.8 9.7 0.00 0.00 0.00 87 1006.0
20260505101041 11 5 3.2 12.9 0.00 0.00 0.00 87 1006.0
20260505100540 11 344 4.8 12.9 0.00 0.00 0.00 86 1006.1
20260505100040 11 5 4.8 9.7 0.00 0.00 0.00 86 1006.2
20260505095539 11 360 3.2 9.7 0.00 0.00 0.00 85 1006.2
20260505095036 11 9 4.8 12.9 0.00 0.00 0.00 85 1006.2
20260505094535 11 341 8.0 12.9 0.00 0.00 0.00 83 1006.4
20260505094034 12 338 6.4 16.1 0.00 0.00 0.00 83 1006.4
20260505093533 12 319 6.4 16.1 0.00 0.00 0.00 82 1006.5
20260505093033 12 340 6.4 14.5 0.00 0.00 0.00 80 1006.4
20260505092531 12 330 6.4 14.5 0.00 0.00 0.00 79 1006.7
20260505092030 12 314 4.8 12.9 0.00 0.00 0.00 78 1006.8
20260505091528 12 355 4.8 14.5 0.00 0.00 0.00 77 1006.8
20260505091027 12 317 8.0 19.3 0.00 0.00 0.00 76 1006.7
20260505090525 12 315 9.7 19.3 0.00 0.00 0.00 75 1006.8
20260505090025 12 331 9.7 19.3 0.00 0.00 0.00 74 1006.8
20260505085524 12 319 9.7 19.3 0.00 0.00 0.00 73 1006.9
20260505085022 13 302 8.0 19.3 0.00 0.00 0.00 72 1006.8
20260505084522 13 294 9.7 19.3 0.00 0.00 0.00 71 1006.9
20260505084020 13 320 8.0 16.1 0.00 0.00 0.00 71 1007.0
20260505083522 13 299 6.4 14.5 0.00 0.00 0.00 70 1007.1
20260505083019 13 318 8.0 12.9 0.00 0.00 0.00 70 1007.1
20260505082522 13 311 3.2 9.7 0.00 0.00 0.00 69 1007.1
20260505082017 13 333 3.2 9.7 0.00 0.00 0.00 68 1007.1
20260505081521 13 340 3.2 9.7 0.00 0.00 0.00 68 1007.1
20260505081019 13 332 0.0 6.4 0.00 0.00 0.00 67 1007.0
20260505080520 13 327 0.0 8.0 0.00 0.00 0.00 66 1007.1
20260505080016 13 324 3.2 8.0 0.00 0.00 0.00 66 1007.2
20260505075515 13 331 3.2 9.7 0.00 0.00 0.00 65 1007.3
20260505075012 13 290 4.8 9.7 0.00 0.00 0.00 64 1007.5
20260505074514 13 298 3.2 9.7 0.00 0.00 0.00 64 1007.3
20260505074014 13 302 3.2 8.0 0.00 0.00 0.00 64 1007.3
20260505073514 13 328 3.2 8.0 0.00 0.00 0.00 64 1007.3
20260505073012 13 318 1.6 8.0 0.00 0.00 0.00 64 1007.4
20260505072511 13 327 3.2 8.0 0.00 0.00 0.00 63 1007.5
20260505072010 13 323 1.6 8.0 0.00 0.00 0.00 63 1007.3
20260505071510 13 329 1.6 11.3 0.00 0.00 0.00 63 1007.3
20260505071010 13 313 4.8 12.9 0.00 0.00 0.00 64 1007.6
20260505070510 13 308 6.4 12.9 0.00 0.00 0.00 63 1007.5
20260505070007 13 313 6.4 14.5 0.00 0.00 0.00 62 1007.6
20260505065505 13 294 6.4 14.5 0.00 0.00 0.00 60 1007.4
20260505065004 13 305 1.6 6.4 0.00 0.00 0.00 57 1007.3
20260505064504 13 323 1.6 6.4 0.00 0.00 0.00 55 1007.3
20260505064007 13 311 1.6 9.7 0.00 0.00 0.00 55 1007.5
20260505063503 13 341 4.8 9.7 0.00 0.00 0.00 54 1007.6
20260505063004 13 333 4.8 8.0 0.00 0.00 0.00 52 1007.6
20260505062503 13 346 1.6 8.0 0.00 0.00 0.00 51 1007.8
20260505062003 13 9 1.6 6.4 0.00 0.00 0.00 51 1007.6
20260505061503 13 15 0.0 3.2 0.00 0.00 0.00 50 1007.8
20260505061002 13 15 0.0 0.0 0.00 0.00 0.00 49 1007.7
20260505060502 13 15 0.0 0.0 0.00 0.00 0.00 49 1007.4
20260505060003 13 15 0.0 1.6 0.00 0.00 0.00 48 1007.2
20260505055503 13 15 0.0 1.6 0.00 0.00 0.00 48 1007.1
20260505055002 13 15 0.0 1.6 0.00 0.00 0.00 47 1007.3
20260505054507 13 15 0.0 3.2 0.00 0.00 0.00 47 1007.2
20260505054002 13 15 0.0 4.8 0.00 0.00 0.00 47 1007.2
20260505053502 13 15 0.0 4.8 0.00 0.00 0.00 47 1007.3
20260505053001 13 15 0.0 4.8 0.00 0.00 0.00 46 1007.5
20260505052501 13 15 0.0 4.8 0.00 0.00 0.00 46 1007.6
20260505052101 13 22 0.0 3.2 0.00 0.00 0.00 46 1007.6
20260505051501 13 76 0.0 1.6 0.00 0.00 0.00 45 1007.6
20260505051001 13 76 0.0 3.2 0.00 0.00 0.00 46 1007.5
20260505050600 13 76 0.0 4.8 0.00 0.00 0.00 46 1007.5
20260505050109 13 76 3.2 4.8 0.00 0.00 0.00 45 1007.6
20260505041608 14 19 6.4 12.9 0.00 0.00 0.00 44 1007.0
20260505041058 14 344 4.8 9.7 0.00 0.00 0.00 44 1007.4
20260505040558 14 355 3.2 9.7 0.00 0.00 0.00 44 1007.6
20260505040104 14 327 1.6 12.9 0.00 0.00 0.00 44 1007.8
20260505035558 14 335 6.4 14.5 0.00 0.00 0.00 44 1007.6
20260505035058 14 319 6.4 17.7 0.00 0.00 0.00 44 1007.3
20260505034611 14 306 9.7 19.3 0.00 0.00 0.00 44 1007.3
20260505034159 14 326 6.4 19.3 0.00 0.00 0.00 43 1007.1
20260505033557 15 316 8.0 20.9 0.00 0.00 0.00 43 1006.9
20260505033057 15 306 11.3 25.7 0.00 0.00 0.00 43 1006.9
20260505032557 15 315 12.9 27.4 0.00 0.00 0.00 43 1006.9
20260505032056 15 296 14.5 24.1 0.00 0.00 0.00 43 1006.7
20260505031655 15 301 12.9 27.4 0.00 0.00 0.00 43 1006.6
20260505031055 15 289 16.1 29.0 0.00 0.00 0.00 42 1006.5
20260505030558 15 308 14.5 29.0 0.00 0.00 0.00 41 1006.5
20260505030109 15 267 16.1 30.6 0.00 0.00 0.00 41 1006.4
20260505025555 15 327 12.9 30.6 0.00 0.00 0.00 41 1006.2
20260505025055 16 313 11.3 27.4 0.00 0.00 0.00 41 1006.3
20260505024610 16 309 11.3 19.3 0.00 0.00 0.00 40 1006.2
20260505024054 16 305 9.7 19.3 0.00 0.00 0.00 39 1006.2
20260505023554 16 320 9.7 19.3 0.00 0.00 0.00 38 1005.9
20260505023054 16 292 8.0 22.5 0.00 0.00 0.00 37 1005.9
20260505022556 17 310 9.7 22.5 0.00 0.00 0.00 37 1005.8
20260505022054 17 327 9.7 22.5 0.00 0.00 0.00 36 1005.8
20260505021554 17 289 9.7 22.5 0.00 0.00 0.00 35 1005.6
20260505021053 17 302 9.7 22.5 0.00 0.00 0.00 34 1005.6
20260505020553 17 275 11.3 20.9 0.00 0.00 0.00 34 1005.7
20260505020105 18 319 8.0 20.9 0.00 0.00 0.00 32 1005.8
20260505015553 18 281 12.9 20.9 0.00 0.00 0.00 31 1005.7
20260505015057 18 304 11.3 19.3 0.00 0.00 0.00 30 1005.6
20260505014553 18 296 9.7 20.9 0.00 0.00 0.00 30 1005.4
20260505014052 18 263 11.3 22.5 0.00 0.00 0.00 29 1005.2
20260505013552 18 298 11.3 22.5 0.00 0.00 0.00 28 1005.2
20260505013052 19 275 11.3 20.9 0.00 0.00 0.00 27 1005.2
20260505012552 20 273 11.3 29.0 0.00 0.00 0.00 27 1005.2
20260505012051 20 324 16.1 29.0 0.00 0.00 0.00 25 1005.2
20260505011555 20 296 14.5 27.4 0.00 0.00 0.00 25 1005.1
20260505011051 20 300 14.5 33.8 0.00 0.00 0.00 25 1005.2
20260505010551 21 302 19.3 33.8 0.00 0.00 0.00 24 1005.2
20260505010107 21 298 17.7 30.6 0.00 0.00 0.00 24 1005.0
20260505005550 21 294 16.1 27.4 0.00 0.00 0.00 24 1005.1
20260505005052 21 317 16.1 29.0 0.00 0.00 0.00 24 1005.1
20260505004602 21 319 17.7 29.0 0.00 0.00 0.00 24 1005.2
20260505004050 21 314 16.1 29.0 0.00 0.00 0.00 25 1005.4
20260505003550 21 278 17.7 33.8 0.00 0.00 0.00 25 1005.4
20260505003052 21 270 16.1 37.0 0.00 0.00 0.00 25 1005.3
20260505002550 21 312 22.5 37.0 0.00 0.00 0.00 24 1005.0
20260505002049 22 290 25.7 35.4 0.00 0.00 0.00 22 1004.9
20260505001550 22 298 16.1 29.0 0.00 0.00 0.00 25 1004.8
20260505001049 22 310 16.1 29.0 0.00 0.00 0.00 26 1004.8
20260505000548 22 293 11.3 30.6 0.00 0.00 0.00 26 1004.7
20260505000056 22 277 14.5 30.6 0.00 0.00 0.00 26 1004.9
20260504235548 22 277 19.3 27.4 0.00 0.00 0.00 26 1005.0
20260504235049 22 282 14.5 30.6 0.00 0.00 0.00 27 1005.0
20260504234548 22 289 16.1 30.6 0.00 0.00 0.00 27 1005.1
20260504234048 22 279 14.5 30.6 0.00 0.00 0.00 26 1005.0
20260504233548 22 286 16.1 30.6 0.00 0.00 0.00 26 1005.3
20260504233049 21 304 17.7 33.8 0.00 0.00 0.00 26 1005.2
20260504232548 21 280 16.1 33.8 0.00 0.00 0.00 26 1005.3
20260504232047 22 313 20.9 32.2 0.00 0.00 0.00 26 1005.1
20260504231618 22 279 19.3 32.2 0.00 0.00 0.00 26 1005.2
20260504231046 22 287 17.7 32.2 0.00 0.00 0.00 23 1005.1
20260504230547 23 302 17.7 30.6 0.00 0.00 0.00 22 1005.0
20260504230046 23 292 19.3 30.6 0.00 0.00 0.00 20 1004.9
20260504225547 23 274 9.7 22.5 0.00 0.00 0.00 19 1004.9
20260504225049 23 242 14.5 22.5 0.00 0.00 0.00 19 1004.9
20260504224545 23 261 12.9 27.4 0.00 0.00 0.00 19 1004.8